Volver al catálogo

CZ-6A DEB

ActivoSSO
NORAD 54529·DEBRIS·🇨🇳 China

Lanzado Nov 11, 2022 desde Taiyuan Satellite Launch Center

Loading…

Próximos Pases (próximas 24 horas)

TLE

ActualizadoSource: Space-Track

Época: Sep 14, 2026, 09:42 UTC

1 54529U 22151KH  26257.40425883  .00000055  00000-0  55973-4 0  9995
2 54529  98.8452 253.5942 0046478  78.9292 281.7100 14.09411297197249

Sigue CZ-6A DEB en tiempo real con AllMySat

Download on the App Store